Regional Weather Roundup
Issued by NWS Cleveland, OH

Home | Current Version | Previous Version | Graphics & Text | Print | Product List | Glossary On
Versions: 1 2 3 4 5 6 7 8 9 10 11 12 13 14 15 16 17 18 19 20 21 22 23 24 25 26 27 28 29 30 31 32 33 34 35 36 37 38 39 40 41 42 43 44 45 46 47 48 49 50
000
ASUS41 KCLE 190402
RWRCLE
OHIO REGIONAL WEATHER ROUNDUP
NATIONAL WEATHER SERVICE CLEVELAND, OH
1100 PM EST THU JAN 18 2018

NOTE: "FAIR" INDICATES FEW OR NO CLOUDS BELOW 12,000 FEET WITH NO
SIGNIFICANT WEATHER AND/OR OBSTRUCTIONS TO VISIBILITY.

OHZ001>008-015>018-024>027-034-035-043-044-190500-
   NORTHWEST OHIO

CITY           SKY/WX    TMP DP  RH WIND       PRES   REMARKS
DEFIANCE       FAIR      24  12  60 SW12      30.05F WCI  13
FINDLAY        FAIR      27  12  53 SW18      30.06F WCI  14
TOLEDO EXPRESS FAIR      25  15  66 SW15      30.02F WCI  13
TOLEDO EXEC    FAIR      25  14  63 SW18      30.04S WCI  11
LIMA           FAIR      25  13  60 SW14      30.08S WCI  13
$$

OHZ009>014-019>023-028>033-038-089-190500-
   NORTHEAST OHIO

CITY           SKY/WX    TMP DP  RH WIND       PRES   REMARKS
CLE-HOPKINS    FAIR      27  13  55 S14       30.07S WCI  16
CLE-LAKEFRONT  FAIR      28  13  53 S20G30    30.03F WCI  15
CUY CO. ARPT   CLEAR     30  14  51 SW17G26   30.03F WCI  18
LORAIN-ELYRIA  FAIR      27  11  51 SW16      30.05F WCI  15
ASHTABULA      FAIR      25  12  58 SW15      30.02F WCI  13
AKRON-CANTON   FAIR      24  11  57 SW16      30.07F WCI  11
WOOSTER        FAIR      23  12  62 SW15      30.08F WCI  10
MANSFIELD      FAIR      25  12  58 SW18G30   30.07S WCI  11
YOUNGSTOWN     FAIR      25  11  55 SW16      30.04F WCI  12
$$

OHZ042-051>053-060>062-070>072-077>081-190500-
  SOUTHWEST OHIO

CITY           SKY/WX    TMP DP  RH WIND       PRES   REMARKS
CINC-COVINGTON FAIR      24  14  65 SW9       30.21S WCI  14
CINC-LUNKEN    FAIR      22  13  68 S10       30.26S WCI  11
HAMILTON       FAIR      26  13  57 SW6       30.23S WCI  19
DAYTON         FAIR      24  13  62 SW16G23   30.15F WCI  11
WRIGHT-PAT AFB FAIR      24   6  46 S15       30.17S WCI  11
DAYTON GENERAL FAIR      24  12  60 SW9       30.18S WCI  14
WILMINGTON     FAIR      21  12  68 SW15      30.19S WCI   8
$$

OHZ036-037-039>041-045>050-054>059-063>069-073>076-082>088-190500-
  CENTRAL AND SOUTHEAST OHIO

CITY           SKY/WX    TMP DP  RH WIND       PRES   REMARKS
COLUMBUS       FAIR      23  11  60 S8        30.19S WCI  14
OSU AIRPORT    FAIR      21  12  68 S13       30.16F WCI   9
BOLTON FIELD   FAIR      21  11  66 SW14      30.18S WCI   8
RICKENBACK AFB FAIR      21  11  64 SW9       30.20R WCI  10
NEWARK         FAIR      22  10  60 SW9       30.17S WCI  12
MARION         FAIR      21  12  68 S15       30.12S WCI   8
LANCASTER      FAIR      23  10  57 S12       30.19S WCI  12
ZANESVILLE     FAIR      24   9  52 SW8       30.18S WCI  15
NEW PHILLY     NOT AVBL
$$




USA.gov is the U.S. government's official web portal to all federal, state and local government web resources and services.